Regional Weather Roundup
Issued by NWS Albany, NY

Home | Current Version | Previous Version | Text Only | Print | Product List | Glossary On
Versions: 1 2 3 4 5 6 7 8 9 10 11 12 13 14 15 16 17 18 19 20 21 22 23 24 25 26 27 28 29 30 31 32 33 34 35 36 37 38 39 40 41 42 43 44 45 46 47 48 49 50
249
ASUS41 KALY 280310
RWRALY

NEW YORK STATE HOURLY WEATHER ROUNDUP
NATIONAL WEATHER SERVICE ALBANY NY
1100 PM EDT TUE JUN 27 2017

NOTE: "FAIR" INDICATES FEW OR NO CLOUDS BELOW 12,000 FEET WITH NO
SIGNIFICANT WEATHER AND/OR NO OBSTRUCTIONS TO VISIBILITY.

NYZ032-033-038>043-046>054-057>066-NYZ062>081-082-084-280400-
EAST


CITY           SKY/WX    TMP DP  RH WIND       PRES   REMARKS
ALBANY         PTCLDY    53  49  86 W6        29.98R
GLENS FALLS    CLEAR     50  49  96 CALM      29.97R FOG
POUGHKEEPSIE   CLEAR     55  52  89 CALM      29.98S
NEWBURGH       CLEAR     57  52  82 CALM      30.01R
MONTGOMERY     CLEAR     55  51  86 SW3       30.00R
WHITE PLAINS   CLEAR     63  51  65 CALM      29.99R
ISLIP          MOCLDY    66  58  75 W5        29.98R
NEW YORK CITY  PTCLDY    70  54  56 N8        29.99R
CENTRAL PARK   CLEAR     69  50  50 VRB3      30.02R
$$

NYZ005>009-017-018-044>046-055-056-280400-
CENTRAL


CITY           SKY/WX    TMP DP  RH WIND       PRES   REMARKS
FULTON         PTCLDY    57  54  89 SW6       29.99R
SYRACUSE       PTCLDY    57  55  93 SW9       29.99R
ROME           MOCLDY    56  54  93 W5        30.00S
ELMIRA         CLOUDY    58  52  80 W7        30.04R
BINGHAMTON     PTCLDY    52  50  93 W7        30.03R
MONTICELLO     CLEAR     54  52  94 MISG      30.04R
$$

NYZ026>034-041>043-087-280400-
NORTH


CITY           SKY/WX    TMP DP  RH WIND       PRES   REMARKS
WATERTOWN      PTCLDY    60  57  89 W9        29.97R
FORT DRUM      NOT AVBL
OGDENSBURG     CLOUDY    58  54  86 SW6       29.93R
MASSENA        LGT RAIN  57  55  93 SW7       29.92R
SARANAC LAKE   CLOUDY    51  49  92 SW6       29.94R
PLATTSBURGH    CLOUDY    55  53  93 S6        29.93R
$$

NYZ001>004-010>016-019>021-085-280400-
WEST


CITY           SKY/WX    TMP DP  RH WIND       PRES   REMARKS
NIAGARA FALLS  CLEAR     57  46  66 W7        30.02S
BUFFALO        MOCLDY    60  46  59 SW6       30.03R
DUNKIRK        CLEAR     60  51  72 S7        30.06R
JAMESTOWN      CLEAR     54  45  71 W6        30.09R
WELLSVILLE     CLEAR     53  46  77 W6        30.10R
ROCHESTER      MOCLDY    57  53  86 W7        30.02R
PENN YAN       CLOUDY    58  49  72 SW10      30.04R
$$

             KEY
       WCI = WIND CHILL INDEX
       VSB = VISIBILITY
       HX  = HEAT INDEX
$$




USA.gov is the U.S. government's official web portal to all federal, state and local government web resources and services.